Simultaneous Nadir Overpasses (SNOs) Predictions

Prediction of SNOs between METOP-A and NOAA-19 Satellite Orbit:

Table of predicted SNOs for the next 14.0 days since TLE Epoch: 1/11/2019
Index Date (METOP-A) Time (METOP-A) Lat,Lon (METOP-A) SZA (METOP-A ) Date (NOAA-19) Time (NOAA-19) Lat,Lon (NOAA-19) SZA (NOAA-19 ) Distance(km) Time Diff (sec)
1 01/14/2019 10:01:39 79.25, 40.26 100.62 01/14/2019 10:00:24 79.26, 40.42 100.62 3.48 75
2 01/14/2019 10:52:20 -79.27,-152.31 79.38 01/14/2019 10:51:23 -79.25,-152.27 79.40 2.02 57
3 01/14/2019 11:43:00 79.27, 15.02 100.62 01/14/2019 11:42:25 79.26, 14.91 100.61 2.44 35
4 01/14/2019 12:33:42 -79.25,-177.81 79.41 01/14/2019 12:33:24 -79.25,-177.78 79.41 0.82 18
5 01/14/2019 13:24:22 79.25, -10.48 100.59 01/14/2019 13:24:26 79.26, -10.60 100.60 3.02 4
6 01/14/2019 14:15:04 -79.22, 156.70 79.45 01/14/2019 14:15:25 -79.25, 156.71 79.42 3.11 21
7 01/14/2019 15:05:44 79.22, -35.97 100.55 01/14/2019 15:06:26 79.23, -35.84 100.56 2.76 42
8 01/14/2019 15:56:25 -79.24, 131.46 79.45 01/14/2019 15:57:25 -79.22, 131.47 79.46 1.82 60
9 01/25/2019 07:01:02 -79.52, -92.73 81.40 01/25/2019 06:59:56 -79.52, -96.48 81.49 75.98 66
10 01/25/2019 07:51:48 79.31, 73.01 98.35 01/25/2019 07:50:47 79.29, 72.92 98.33 2.94 61
11 01/25/2019 08:42:30 -79.29,-119.80 81.69 01/25/2019 08:41:49 -79.29,-119.78 81.69 0.89 41
12 01/25/2019 09:33:10 79.29, 47.52 98.31 01/25/2019 09:32:48 79.29, 47.40 98.31 2.44 22
13 01/25/2019 10:23:52 -79.27,-145.30 81.73 01/25/2019 10:23:50 -79.29,-145.29 81.71 1.80 2
14 01/25/2019 11:14:32 79.27, 22.02 98.27 01/25/2019 11:14:48 79.27, 22.16 98.27 2.92 16
15 01/25/2019 12:05:13 -79.28,-170.54 81.73 01/25/2019 12:05:50 -79.26,-170.53 81.75 3.06 37
16 01/25/2019 12:55:53 79.28, -3.22 98.27 01/25/2019 12:56:49 79.27, -3.36 98.25 3.32 56




NCC Satellite Simultaneous Nadir Overpasses (SNOs) Prediction Service
